Weather History for Dumas, TX

Change the Weather History Date:

Sunday, February 10, 2013

  Actual Average (KBGD) Record (KBGD)
Temperature  
Mean Temperature 39 °F 41 °F  
Max Temperature 48 °F 54 °F 84 °F (1962)
Min Temperature 30 °F 29 °F -2 °F (2011)
Degree Days  
Heating Degree Days 26 24  
Month to date heating degree days 243  
Since 1 July heating degree days 2595  
Cooling Degree Days 0 0  
Month to date cooling degree days 0  
Year to date cooling degree days 0  
Moisture  
Dew Point 14 °F    
Average Humidity 38    
Maximum Humidity 51    
Minimum Humidity 25    
Precipitation  
Precipitation 0.00 in 0.02 in 0.45 in (2010)
Month to date precipitation 0.25  
Year to date precipitation 0.84  
Snow  
Snow 0.00 in - 1.00 in (1986)
Month to date snowfall  
Since 1 July snowfall  
Snow Depth -    
Sea Level Pressure  
Sea Level Pressure 29.79 in    
Wind  
Wind Speed 20 mph (NW)    
Max Wind Speed 36 mph    
Max Gust Speed 41 mph    
Visibility 10 miles    
Events      
T = Trace of Precipitation, MM = Missing Value Source: NWS Daily Summary

Daily Weather History Graph

Daily Weather History Graph

Search for Another Location

Airport:

Trip Planner

Search our weather history database for the weather conditions in past years. The results will help you decide how hot, cold, wet, or windy it might be!

Date:

Astronomy

Feb. 10, 2013 Rise Set
Actual Time 7:40 AM CST 6:24 PM CST
Civil Twilight 7:13 AM CST 6:51 PM CST
Nautical Twilight 6:43 AM CST 7:21 PM CST
Astronomical Twilight 6:13 AM CST 7:51 PM CST
Moon 7:33 AM CST (2/10) 7:14 PM CST (2/10)
Length of Visible Light 11h 37m
Length of Day
10h 44m
New Moon, 0% of the Moon is Illuminated
Feb 10
New Moon
Feb 17
First Quarter
Feb 25
Full
Mar 4
Last Quarter
Mar 11
New

Hourly Weather History & Observations

Time (CST) Temp. Windchill Dew Point Humidity Pressure Visibility Wind Dir Wind Speed Gust Speed Precip Events Conditions
12:15 AM 37.4 °F 25.6 °F 8.6 °F 30% 29.61 in 10.0 mi WSW 26.5 mph 32.2 mph N/A   Clear
12:35 AM 37.4 °F 25.2 °F 10.4 °F 33% 29.61 in 10.0 mi WSW 28.8 mph 33.4 mph N/A   Clear
12:55 AM 37.4 °F 25.2 °F 10.4 °F 33% 29.60 in 10.0 mi WSW 28.8 mph 33.4 mph N/A   Clear
1:15 AM 37.4 °F 24.6 °F 10.4 °F 33% 29.61 in 10.0 mi WSW 32.2 mph 36.8 mph N/A   Clear
1:35 AM 37.4 °F 25.6 °F 12.2 °F 36% 29.61 in 10.0 mi WSW 26.5 mph 36.8 mph N/A   Clear
1:55 AM 35.6 °F 22.7 °F 12.2 °F 38% 29.60 in 10.0 mi WSW 28.8 mph 36.8 mph N/A   Clear
2:15 AM 37.4 °F 25.0 °F 14.0 °F 38% 29.60 in 10.0 mi WSW 29.9 mph 35.7 mph N/A   Clear
2:35 AM 37.4 °F 25.0 °F 14.0 °F 38% 29.60 in 10.0 mi WSW 29.9 mph 39.1 mph N/A   Mostly Cloudy
2:55 AM 35.6 °F 21.5 °F 14.0 °F 41% 29.60 in 10.0 mi WSW 35.7 mph 41.4 mph N/A   Overcast
3:15 AM 35.6 °F 22.3 °F 15.8 °F 44% 29.60 in 10.0 mi WSW 31.1 mph 39.1 mph N/A   Overcast
3:35 AM 35.6 °F 22.7 °F 15.8 °F 44% 29.61 in 10.0 mi WSW 28.8 mph 36.8 mph N/A   Scattered Clouds
3:55 AM 35.6 °F 23.0 °F 15.8 °F 44% 29.62 in 10.0 mi WSW 27.6 mph 35.7 mph N/A   Clear
4:15 AM 35.6 °F 23.2 °F 15.8 °F 44% 29.62 in 10.0 mi WSW 26.5 mph 33.4 mph N/A   Clear
4:35 AM 33.8 °F 21.6 °F 15.8 °F 48% 29.62 in 10.0 mi WSW 23.0 mph 28.8 mph N/A   Clear
4:55 AM 33.8 °F 21.9 °F 15.8 °F 48% 29.63 in 10.0 mi WSW 21.9 mph - N/A   Clear
5:15 AM 33.8 °F 22.8 °F 14.0 °F 44% 29.64 in 10.0 mi West 18.4 mph 25.3 mph N/A   Clear
5:35 AM 32.0 °F 22.1 °F 14.0 °F 48% 29.65 in 10.0 mi West 13.8 mph - N/A   Clear
5:55 AM 30.2 °F 21.9 °F 14.0 °F 51% 29.66 in 10.0 mi WNW 9.2 mph - N/A   Clear
6:15 AM 32.0 °F 20.8 °F 15.8 °F 51% 29.66 in 10.0 mi West 17.3 mph - N/A   Clear
6:35 AM 32.0 °F 20.5 °F 14.0 °F 48% 29.66 in 10.0 mi WSW 18.4 mph - N/A   Clear
6:55 AM 32.0 °F 20.5 °F 14.0 °F 48% 29.67 in 10.0 mi WSW 18.4 mph - N/A   Clear
7:15 AM 32.0 °F 20.1 °F 14.0 °F 48% 29.68 in 10.0 mi WSW 19.6 mph - N/A   Clear
7:35 AM 32.0 °F 20.5 °F 14.0 °F 48% 29.69 in 10.0 mi WSW 18.4 mph - N/A   Clear
7:55 AM 32.0 °F 20.8 °F 14.0 °F 48% 29.70 in 10.0 mi WSW 17.3 mph - N/A   Clear
8:15 AM 32.0 °F 20.8 °F 14.0 °F 48% 29.71 in 10.0 mi WSW 17.3 mph - N/A   Clear
8:35 AM 32.0 °F 20.5 °F 14.0 °F 48% 29.73 in 10.0 mi WSW 18.4 mph - N/A   Clear
8:55 AM 33.8 °F 22.5 °F 14.0 °F 44% 29.74 in 10.0 mi WSW 19.6 mph - N/A   Clear
9:15 AM 35.6 °F 27.1 °F 14.0 °F 41% 29.75 in 10.0 mi West 12.7 mph - N/A   Clear
9:35 AM 37.4 °F 28.9 °F 14.0 °F 38% 29.77 in 10.0 mi WNW 13.8 mph - N/A   Clear
9:55 AM 39.2 °F 31.2 °F 12.2 °F 33% 29.78 in 10.0 mi WNW 13.8 mph - N/A   Clear
10:15 AM 39.2 °F 30.8 °F 12.2 °F 33% 29.80 in 10.0 mi NW 15.0 mph - N/A   Clear
10:35 AM 41.0 °F 31.6 °F 12.2 °F 31% 29.81 in 10.0 mi NW 20.7 mph 26.5 mph N/A   Clear
10:55 AM 41.0 °F 32.8 °F 12.2 °F 31% 29.81 in 10.0 mi NNW 16.1 mph - N/A   Clear
11:15 AM 42.8 °F 37.0 °F 15.8 °F 34% 29.82 in 10.0 mi North 10.4 mph 17.3 mph N/A   Clear
11:35 AM 42.8 °F 37.5 °F 19.4 °F 39% 29.82 in 10.0 mi North 9.2 mph 17.3 mph N/A   Clear
11:55 AM 44.6 °F 38.1 °F 21.2 °F 39% 29.82 in 10.0 mi NNW 13.8 mph - N/A   Clear
12:15 PM 44.6 °F 40.7 °F 19.4 °F 37% 29.83 in 10.0 mi NNW 6.9 mph 19.6 mph N/A   Clear
12:35 PM 46.4 °F 40.7 °F 19.4 °F 34% 29.82 in 10.0 mi NNW 12.7 mph 19.6 mph N/A   Clear
12:55 PM 46.4 °F 41.1 °F 19.4 °F 34% 29.82 in 10.0 mi NW 11.5 mph - N/A   Clear
1:15 PM 46.4 °F 42.4 °F 17.6 °F 32% 29.81 in 10.0 mi North 8.1 mph 18.4 mph N/A   Clear
1:35 PM 46.4 °F 41.5 °F 15.8 °F 29% 29.81 in 10.0 mi WNW 10.4 mph 18.4 mph N/A   Clear
1:55 PM 48.2 °F - 17.6 °F 30% 29.81 in 10.0 mi NNW 16.1 mph 23.0 mph N/A   Clear
2:15 PM 48.2 °F - 15.8 °F 27% 29.81 in 10.0 mi North 11.5 mph 21.9 mph N/A   Clear
2:35 PM 46.4 °F 41.1 °F 14.0 °F 27% 29.82 in 10.0 mi North 11.5 mph 24.2 mph N/A   Clear
2:55 PM 46.4 °F 41.5 °F 14.0 °F 27% 29.82 in 10.0 mi NNW 10.4 mph 21.9 mph N/A   Clear
3:15 PM 46.4 °F 39.5 °F 14.0 °F 27% 29.83 in 10.0 mi North 17.3 mph 21.9 mph N/A   Clear
3:35 PM 46.4 °F 40.4 °F 14.0 °F 27% 29.83 in 10.0 mi NNW 13.8 mph 18.4 mph N/A   Clear
3:55 PM 46.4 °F 41.1 °F 14.0 °F 27% 29.84 in 10.0 mi North 11.5 mph 18.4 mph N/A   Clear
4:15 PM 46.4 °F 40.7 °F 14.0 °F 27% 29.85 in 10.0 mi North 12.7 mph - N/A   Clear
4:35 PM 46.4 °F 40.4 °F 12.2 °F 25% 29.85 in 10.0 mi North 13.8 mph 18.4 mph N/A   Clear
4:55 PM 44.6 °F 39.2 °F 14.0 °F 29% 29.86 in 10.0 mi NNE 10.4 mph - N/A   Clear
5:15 PM 44.6 °F 38.4 °F 14.0 °F 29% 29.87 in 10.0 mi North 12.7 mph 17.3 mph N/A   Clear
5:35 PM 44.6 °F 38.8 °F 12.2 °F 27% 29.88 in 10.0 mi North 11.5 mph - N/A   Clear
5:55 PM 42.8 °F 37.5 °F 12.2 °F 29% 29.89 in 10.0 mi NNE 9.2 mph - N/A   Clear
6:15 PM 41.0 °F 37.1 °F 12.2 °F 31% 29.90 in 10.0 mi NNE 5.8 mph - N/A   Clear
6:35 PM 37.4 °F 32.1 °F 12.2 °F 36% 29.91 in 10.0 mi NNE 6.9 mph - N/A   Clear
6:55 PM 35.6 °F 29.9 °F 12.2 °F 38% 29.92 in 10.0 mi NE 6.9 mph - N/A   Clear
7:15 PM 35.6 °F 30.7 °F 12.2 °F 38% 29.93 in 10.0 mi NE 5.8 mph - N/A   Clear
7:35 PM 35.6 °F 29.9 °F 12.2 °F 38% 29.93 in 10.0 mi NE 6.9 mph - N/A   Clear
7:55 PM 35.6 °F 29.9 °F 12.2 °F 38% 29.95 in 10.0 mi NE 6.9 mph - N/A   Clear
8:15 PM 33.8 °F 28.6 °F 12.2 °F 41% 29.96 in 10.0 mi NE 5.8 mph - N/A   Clear
8:35 PM 33.8 °F 27.0 °F 12.2 °F 41% 29.96 in 10.0 mi NE 8.1 mph - N/A   Clear
8:55 PM 33.8 °F 28.6 °F 12.2 °F 41% 29.98 in 10.0 mi NE 5.8 mph - N/A   Clear
9:15 PM 33.8 °F 27.0 °F 12.2 °F 41% 29.98 in 10.0 mi NE 8.1 mph - N/A   Clear
9:35 PM 32.0 °F 26.4 °F 12.2 °F 44% 30.00 in 10.0 mi NE 5.8 mph - N/A   Clear
9:55 PM 32.0 °F 26.4 °F 12.2 °F 44% 30.00 in 10.0 mi NE 5.8 mph - N/A   Clear
10:15 PM 32.0 °F 25.6 °F 12.2 °F 44% 30.00 in 10.0 mi NE 6.9 mph - N/A   Clear
10:35 PM 32.0 °F 25.6 °F 12.2 °F 44% 30.01 in 10.0 mi NE 6.9 mph - N/A   Clear
10:55 PM 30.2 °F 22.6 °F 12.2 °F 47% 30.01 in 10.0 mi ENE 8.1 mph - N/A   Clear
11:15 PM 32.0 °F 24.8 °F 12.2 °F 44% 30.02 in 10.0 mi NE 8.1 mph - N/A   Clear
11:35 PM 30.2 °F 23.4 °F 12.2 °F 47% 30.02 in 10.0 mi NE 6.9 mph - N/A   Clear
11:55 PM 30.2 °F 24.3 °F 12.2 °F 47% 30.03 in 10.0 mi ENE 5.8 mph - N/A   Clear